Погода в Кобякове

Россия / Республика Хакасия     54°47′50″N   89°46′28″E
темп.,
°C
ветер,
м/с
пор.,
м/с
влажн.,
%
обл.,
%
осадки,
мм/ч
давл.,
гПа
погр.,
м
17 мая, пн
пн1701:00+11ссв2289100 1.6 1012191
04:00+10ссв1292100 0.9 1012195
07:00+10св1187100 0.9 1012201
10:00+10ссв2385100 0.1 1014424
13:00+12ссз137396 0.1 1014665
16:00+15с2362100 0.2 10121120
19:00+14с236398 0.4 1013781
22:00+10с118243 0.0 101410
18 мая, вт
вт1801:00+9сз118759 0.0 101310
04:00+10ююз1187100 0.0 101225
07:00+10ю2388100 0.4 101199
10:00+13ю2677100 0.1 1006469
13:00+16зюз71471100 1.1 10021204
16:00+18з8176993 0.5 9991706
19:00+16з9206711 1.1 9981778
22:00+9сз61282100 0.1 10051009
19 мая, ср
ср1901:00+9ссз2578100 0.1 1006661
04:00+8всв1183100 0.0 1005250
07:00+7всв2393100 3.7 1004317
10:00+7св3593100 4.9 1003480
13:00+4с5796100 12.3 1004572
16:00+4сз3995100 5.1 1006789
19:00+7ссз596761 5.3 10081504
22:00+4сз377099 0.1 1010167
20 мая, чт
чт2001:00+2сз2476100 0.1 1012101
04:00+2сз3570100 0.0 1011175
07:00+3сз2659100 0.0 1012593
10:00+5сз4549100 0.3 10121628
13:00+4ссз3564100 1.2 10131166
16:00+3ссз4662100 1.3 10141233
19:00+5сз464888 1.6 10152034
22:00+1з336318 0.0 101661
21 мая, пт
пт2101:00+1зсз7117887 0.3 1017800
04:000з3699100 1.6 1017307
07:00+2зсз488686 1.9 1019691
10:00+6сз686499 0.1 10191482
13:00+8сз785495 0.3 10181913
16:00+10с454472 0.0 10181992
19:00+10св234848 0.0 1018783
22:00+4юв248929 0.0 101981